{"data":{"norad_id":65719,"intl_designator":"2025-214H","name":"GEESAT-6 07","alt_names":[],"object_type":"PAYLOAD","status":"ACTIVE","operator":null,"country":"PRC","launch_date":"2025-09-24","launch_site_code":"YSLA","launch_vehicle":null,"mission":null,"orbit_class":"UNKNOWN","rcs_meters":null,"size_class":null,"mass_kg":null,"dimensions":null,"purposes":[],"wikipedia_slug":null,"has_3d_model":false,"image_url":null,"decayed_at":null,"tle_current":{"epoch":"2026-09-20T14:15:08.422272Z","epoch_age_seconds":141696,"freshness":"FRESH","line1":"1 65719U 25214H   26263.59384748  .00001076  00000+0  15629-3 0  9998","line2":"2 65719  49.9799 225.7313 0009768 243.5024 116.4913 14.83604238 53686","mean_motion":14.83604238,"eccentricity":0.0009768,"inclination_deg":49.9799,"raan_deg":225.7313,"arg_perigee_deg":243.5024,"mean_anomaly_deg":116.4913,"bstar":0.00015629,"rev_number":5368,"period_min":97.0609252196,"perigee_km":611.13654772389,"apogee_km":624.80414303382,"semimajor_km":6996.1073453789,"source":"CELESTRAK","updated_at":"2026-09-21T09:00:15.523511Z"}}}